This demonstration page uses our WeatherBlox Daily Observations layout. Learn more.

Left ArrowRight Arrow

Hourly Observations for November 19, 2022

Temp ( °F °C ) Dew Point ( °F °C ) Humidity (%) Winds ( mph kmh ) Pressure ( in mb ) Visibility ( mi km ) Precip ( " mm )
12:28 am 00:28 Cloudy 34 1.1 28 -2.2 79 79 ENE 12 19 30.42 1030 8 13 0.00 0.00
12:53 am 00:53 Cloudy with Mist and Fog 33 0.6 29 -1.7 85 85 ENE 12 19 30.33 1027 6 10 0.00 0.00
1:53 am 01:53 Cloudy with Mist and Fog 32 0 29 -1.7 88 88 NE 10 17 30.33 1027 4 6 0.00 0.00
2:45 am 02:45 Cloudy with Mist and Fog 32 0 29 -1.7 88 88 ENE 9 15 30.44 1031 6 10 0.00 0.00
2:53 am 02:53 Cloudy with Mist and Fog 32 0 29 -1.7 88 88 ENE 9 15 30.32 1027 6 10 0.00 0.00
3:53 am 03:53 Cloudy 32 0 29 -1.7 88 88 NE 7 11 30.31 1026 8 13 0.00 0.00
4:34 am 04:34 Cloudy with Mist and Fog 32 0 29 -1.7 88 88 ENE 7 11 30.42 1030 4 6 0.00 0.00
4:53 am 04:53 Cloudy with Mist and Fog 32 0 30 -1.1 92 92 NE 7 11 30.32 1027 4 6 0.00 0.00
5:53 am 05:53 Cloudy with Mist and Fog 32 0 30 -1.1 92 92 ENE 6 9 30.31 1027 3 4 0.01 0.13
6:00 am 06:00 Cloudy with Light Freezing Rain 32 0 30 -1.1 92 92 NE 6 9 30.42 1030 3 4 0.01 0.13
6:09 am 06:09 Cloudy with Mist and Fog 32 0 31 -0.6 96 96 ENE 5 7 30.42 1030 3 4 0.01 0.13
6:28 am 06:28 Cloudy with Mist and Fog 32 0 31 -0.6 96 96 E 6 9 30.44 1031 3 5 0.01 0.13
6:53 am 06:53 Cloudy with Mist and Fog 32 0 31 -0.6 96 96 E 6 9 30.33 1027 3 4 0.01 0.13
7:04 am 07:04 Cloudy with Mist and Fog 32 0 31 -0.6 96 96 ENE 3 6 30.44 1031 3 5 0.00 0.00
7:42 am 07:42 Cloudy with Mist and Fog 32 0 30 -1.1 92 92 ENE 7 11 30.46 1031 4 6 0.01 0.13
7:53 am 07:53 Cloudy with Mist and Fog 32 0 31 -0.6 96 96 ENE 5 7 30.37 1028 3 4 0.01 0.13
8:00 am 08:00 Cloudy with Mist and Fog 32 0 31 -0.6 96 96 ENE 7 11 30.47 1032 3 5 0.00 0.00
8:06 am 08:06 Cloudy with Mist and Fog 32 0 31 -0.6 96 96 ENE 6 9 30.47 1032 3 4 0.00 0.00
8:22 am 08:22 Cloudy with Mist and Fog 32 0 31 -0.6 96 96 ENE 7 11 30.47 1032 2 2 0.00 0.00
8:30 am 08:30 Cloudy with Mist and Fog 32 0 31 -0.6 96 96 E 8 13 30.47 1032 2 2 0.00 0.00
8:53 am 08:53 Cloudy with Mist and Fog 32 0 31 -0.6 96 96 ENE 7 11 30.39 1029 2 3 0.01 0.13
9:11 am 09:11 Cloudy with Mist and Fog 32 0 31 -0.6 96 96 NE 9 15 30.49 1032 3 5 0.01 0.13
9:27 am 09:27 Cloudy with Mist and Fog 33 0.6 32 0 96 96 NE 9 15 30.49 1032 3 5 0.01 0.13
9:53 am 09:53 Cloudy with Mist and Fog 33 0.6 31 -0.6 92 92 NE 8 13 30.41 1030 4 6 0.01 0.13
10:53 am 10:53 Cloudy 34 1.1 31 -0.6 88 88 NNE 7 11 30.43 1031 9 14 0.00 0.00
11:53 am 11:53 Cloudy 35 1.7 31 -0.6 85 85 NE 6 9 30.43 1031 10 16 0.00 0.00
12:11 pm 12:11 Cloudy 35 1.7 31 -0.6 85 85 NNE 7 11 30.51 1033 10 16 0.00 0.00
12:53 pm 12:53 Cloudy 35 1.7 30 -1.1 82 82 NNE 7 11 30.42 1030 10 16 0.00 0.00
1:53 pm 13:53 Cloudy 36 2.2 30 -1.1 79 79 E 6 9 30.41 1030 10 16 0.00 0.00
2:03 pm 14:03 Cloudy 36 2.2 29 -1.7 75 75 E 6 9 30.48 1032 10 16 0.00 0.00
2:12 pm 14:12 Cloudy 36 2.2 30 -1.1 79 79 E 3 6 30.47 1032 10 16 0.00 0.00
2:53 pm 14:53 Cloudy 37 2.8 29 -1.7 72 72 E 5 7 30.40 1030 10 16 0.00 0.00
3:28 pm 15:28 Cloudy 38 3.3 29 -1.7 70 70 ESE 6 9 30.46 1031 10 16 0.00 0.00
3:53 pm 15:53 Cloudy 39 3.9 28 -2.2 64 64 E 8 13 30.40 1029 10 16 0.00 0.00
4:22 pm 16:22 Cloudy 39 3.9 28 -2.2 64 64 E 8 13 30.45 1031 10 16 0.00 0.00
4:53 pm 16:53 Cloudy 39 3.9 28 -2.2 64 64 E 5 7 30.40 1029 10 16 0.00 0.00
5:53 pm 17:53 Cloudy 39 3.9 26 -3.3 59 59 ESE 5 7 30.41 1030 10 16 0.00 0.00
6:53 pm 18:53 Cloudy 38 3.3 26 -3.3 62 62 SE 3 6 30.43 1031 10 16 0.00 0.00
7:53 pm 19:53 Cloudy 36 2.2 29 -1.7 75 75 SSW 6 9 30.45 1031 10 16 0.00 0.00
8:53 pm 20:53 Clear 33 0.6 29 -1.7 85 85 WSW 6 9 30.46 1031 10 16 0.00 0.00
9:53 pm 21:53 Clear 31 -0.6 27 -2.8 85 85 WNW 3 6 30.46 1032 8 13 0.00 0.00
10:53 pm 22:53 Clear 30 -1.1 27 -2.8 88 88 W 3 6 30.47 1032 8 13 0.00 0.00
11:53 pm 23:53 Mostly Cloudy with Mist and Fog 28 -2.2 26 -3.3 92 92 NW 5 7 30.47 1032 6 10 0.00 0.00

Powered by AerisWeather